Weather History for Jerome, ID

Change the Weather History Date:

Wednesday, January 29, 2014

  Actual Average Record
Temperature  
Mean Temperature 35 °F 27 °F  
Max Temperature 41 °F 34 °F 53 °F (1953)
Min Temperature 29 °F 20 °F -16 °F (1949)
Degree Days  
Heating Degree Days 30 38  
Month to date heating degree days 998 1120  
Since 1 July heating degree days 3782 3850  
Cooling Degree Days 0 0  
Month to date cooling degree days 0 0  
Year to date cooling degree days 0 0  
Moisture  
Dew Point 31 °F    
Average Humidity 85    
Maximum Humidity 100    
Minimum Humidity 69    
Precipitation  
Precipitation 0.48 in 0.02 in 0.48 in (2014)
Month to date precipitation 0.74 1.01  
Year to date precipitation 0.74 1.01  
Sea Level Pressure  
Sea Level Pressure 29.92 in    
Wind  
Wind Speed 10 mph (NNE)    
Max Wind Speed 28 mph    
Max Gust Speed 34 mph    
Visibility 8 miles    
Events Fog , Rain    
T = Trace of Precipitation, MM = Missing Value Source: NWS Daily Summary

Daily Weather History Graph

Daily Weather History Graph

Search for Another Location

Airport:

Trip Planner

Search our weather history database for the weather conditions in past years. The results will help you decide how hot, cold, wet, or windy it might be!

Date:

Astronomy

Jan. 29, 2014 Rise Set
Actual Time 7:55 AM MST 5:47 PM MST
Civil Twilight 7:24 AM MST 6:17 PM MST
Nautical Twilight 6:50 AM MST 6:51 PM MST
Astronomical Twilight 6:17 AM MST 7:24 PM MST
Moon 6:35 AM MST (1/29) 4:52 PM MST (1/29)
Length of Visible Light 10h 52m
Length of Day
9h 52m
Waning Crescent, 2% of the Moon is Illuminated
Jan 29
Waning Crescent
Jan 30
New
Feb 6
First Quarter
Feb 14
Full
Feb 22
Last Quarter

Hourly Weather History & Observations

Time (MST) Temp. Windchill Dew Point Humidity Pressure Visibility Wind Dir Wind Speed Gust Speed Precip Events Conditions
12:53 AM 28.9 °F 21.9 °F 23.0 °F 78% 30.24 in 10.0 mi NNE 6.9 mph - N/A   Overcast
1:53 AM 30.0 °F 21.7 °F 21.0 °F 69% 30.21 in 10.0 mi NE 9.2 mph - N/A   Overcast
2:53 AM 30.9 °F 23.5 °F 21.0 °F 67% 30.18 in 10.0 mi East 8.1 mph - N/A   Overcast
3:53 AM 30.9 °F 25.2 °F 21.9 °F 69% 30.16 in 10.0 mi ENE 5.8 mph - N/A   Overcast
4:40 AM 30.0 °F 22.4 °F 24.1 °F 79% 30.06 in 10.0 mi NE 8.1 mph - 0.00 in   Overcast
4:53 AM 30.0 °F 21.7 °F 25.0 °F 82% 30.13 in 10.0 mi NE 9.2 mph - 0.00 in   Overcast
5:10 AM 30.0 °F 21.1 °F 25.0 °F 82% 30.06 in 10.0 mi NE 10.4 mph - 0.00 in Rain Light Freezing Rain
5:53 AM 28.9 °F 17.7 °F 26.1 °F 89% 30.11 in 10.0 mi NNE 15.0 mph - 0.02 in Rain Light Freezing Rain
6:53 AM 30.9 °F 21.2 °F 28.9 °F 92% 30.07 in 9.0 mi ENE 12.7 mph - 0.05 in Rain Light Freezing Rain
7:07 AM 30.9 °F 20.7 °F 30.0 °F 96% 30.00 in 9.0 mi ENE 13.8 mph - 0.01 in   Overcast
7:29 AM 30.9 °F 21.2 °F 30.9 °F 100% 29.99 in 8.0 mi ENE 12.7 mph - 0.03 in   Overcast
7:41 AM 30.9 °F 21.7 °F 30.9 °F 100% 29.98 in 8.0 mi ENE 11.5 mph - 0.03 in Rain Light Freezing Rain
7:53 AM 30.9 °F 21.2 °F 30.9 °F 100% 30.05 in 9.0 mi NE 12.7 mph - 0.04 in Rain Light Freezing Rain
8:46 AM 30.9 °F 21.2 °F 30.9 °F 100% 29.95 in 6.0 mi NE 12.7 mph - 0.05 in Rain Light Freezing Rain
8:53 AM 32.0 °F 23.0 °F 30.9 °F 96% 30.02 in 6.0 mi NE 11.5 mph - 0.06 in Rain Light Freezing Rain
9:07 AM 30.9 °F 21.2 °F 30.9 °F 100% 29.94 in 7.0 mi NE 12.7 mph - 0.01 in   Overcast
9:35 AM 30.9 °F 20.7 °F 30.9 °F 100% 29.93 in 6.0 mi NNE 13.8 mph - 0.04 in Rain Light Freezing Rain
9:53 AM 30.9 °F 20.2 °F 30.9 °F 100% 29.99 in 6.0 mi NE 15.0 mph - 0.06 in Rain Light Freezing Rain
10:38 AM 30.9 °F 20.2 °F 30.9 °F 100% 29.90 in 4.0 mi NNE 15.0 mph - 0.03 in Rain Light Freezing Rain
10:53 AM 32.0 °F 22.5 °F 30.9 °F 96% 29.96 in 9.0 mi NNE 12.7 mph - 0.03 in   Overcast
11:37 AM 32.0 °F 23.0 °F 30.9 °F 96% 29.87 in 10.0 mi NNE 11.5 mph - 0.00 in   Overcast
11:53 AM 32.0 °F 23.6 °F 32.0 °F 100% 29.93 in 10.0 mi NNE 10.4 mph - 0.00 in   Overcast
12:53 PM 32.0 °F 24.2 °F 32.0 °F 100% 29.86 in 10.0 mi NNE 9.2 mph - 0.00 in   Overcast
1:53 PM 35.1 °F 29.3 °F 34.0 °F 96% 29.79 in 10.0 mi NNE 6.9 mph - 0.00 in   Overcast
2:53 PM 39.9 °F - 39.0 °F 97% 29.72 in 8.0 mi Calm Calm - 0.01 in Rain Light Rain
3:32 PM 36.0 °F 29.0 °F 36.0 °F 100% 29.70 in 3.0 mi NNW 9.2 mph - 0.09 in Rain Heavy Rain
3:42 PM 34.0 °F 25.0 °F 34.0 °F 100% 29.72 in 3.0 mi NNW 12.7 mph - 0.13 in Rain Rain
3:53 PM 34.0 °F 26.0 °F 34.0 °F 100% 29.77 in 4.0 mi NNW 10.4 mph - 0.15 in Rain Light Rain
4:19 PM 36.0 °F 26.0 °F 36.0 °F 100% 29.74 in 6.0 mi West 17.3 mph 24.2 mph 0.03 in Rain Light Rain
4:30 PM 35.1 °F 23.0 °F 35.1 °F 100% 29.76 in 1.5 mi West 24.2 mph 34.5 mph 0.05 in Rain Light Rain
4:34 PM 35.1 °F 23.8 °F 35.1 °F 100% 29.76 in 0.5 mi WSW 20.7 mph 34.5 mph 0.05 in Fog , Rain Light Rain
4:43 PM 34.0 °F 21.3 °F 34.0 °F 100% 29.77 in 0.2 mi WSW 25.3 mph 31.1 mph 0.05 in Fog , Rain Light Rain
4:53 PM 34.0 °F 21.8 °F 34.0 °F 100% 29.83 in 0.2 mi WSW 23.0 mph 31.1 mph 0.05 in Fog , Rain Light Rain
5:27 PM 32.0 °F 20.1 °F 32.0 °F 100% 29.81 in 0.5 mi West 19.6 mph 28.8 mph 0.01 in Fog Fog
5:53 PM 32.0 °F 22.5 °F 32.0 °F 100% 29.86 in 9.0 mi SW 12.7 mph - 0.01 in   Overcast
6:02 PM 32.0 °F 23.6 °F 32.0 °F 100% 29.79 in 10.0 mi SW 10.4 mph - 0.00 in   Overcast
6:09 PM 32.0 °F 22.5 °F 32.0 °F 100% 29.81 in 10.0 mi SW 12.7 mph - 0.00 in Rain Light Freezing Rain
6:17 PM 33.1 °F 23.9 °F 32.0 °F 96% 29.81 in 10.0 mi SSW 12.7 mph - 0.00 in   Overcast
6:53 PM 33.1 °F 25.5 °F 32.0 °F 96% 29.86 in 10.0 mi South 9.2 mph - 0.00 in   Overcast
7:53 PM 34.0 °F 25.5 °F 33.1 °F 96% 29.84 in 10.0 mi South 11.5 mph - N/A   Overcast
8:53 PM 35.1 °F 27.4 °F 33.1 °F 92% 29.84 in 10.0 mi SSW 10.4 mph - N/A   Mostly Cloudy
9:53 PM 34.0 °F 28.8 °F 33.1 °F 96% 29.85 in 10.0 mi WNW 5.8 mph - N/A   Clear
10:53 PM 35.1 °F 28.6 °F 33.1 °F 92% 29.84 in 10.0 mi WSW 8.1 mph - N/A   Clear
11:53 PM 35.1 °F 28.6 °F 33.1 °F 92% 29.83 in 10.0 mi SW 8.1 mph - N/A   Clear